Location: Oberwangen
(47.4286°N, 8.9679°E)
Time: 06:11:19
(UTC+00:00)

Cosmos 1441 Rocket - Pass Details

Date: 20 June 2021
Orbit: 495 x 539 km, 81.1° (Epoch: 28 July)

Event Time Altitude Azimuth Distance (km) Brightness Sun altitude
Exits shadow 21:54:10 25° 116° (ESE) 1,069 4.4 -16.2°
Maximum altitude 21:55:01 28° 93° (E) 1,001 4.4 -16.2°
Drops below altitude 10° 21:58:19 10° 33° (NNE) 1,743 6.3 -16.4°
Sets 22:00:38 0° 22° (NNE) 2,626 7.6 -16.6°
